Regional Weather Roundup
Issued by NWS Newport/Morehead, NC

Current Version | Previous Version | Graphics & Text | Print | Product List | Glossary Off
Versions: 1 2 3 4 5 6 7 8 9 10 11 12 13 14 15 16 17 18 19 20 21 22 23 24 25 26 27 28 29 30 31 32 33 34 35 36 37 38 39 40 41 42 43 44 45 46 47 48 49 50

000
ASUS42 KMHX 051025
RWRMHX
WEATHER ROUNDUP FOR EASTERN NORTH CAROLINA
NATIONAL WEATHER SERVICE NEWPORT/MOREHEAD CITY NC
500 AM EST FRI FEB 05 2016

NOTE: "FAIR" INDICATES FEW OR NO CLOUDS BELOW 12,000 FEET
WITH NO SIGNIFICANT WEATHER AND/OR OBSTRUCTIONS TO VISIBILITY

NCZ015>017-031-032-045>047-102-103-051100-
NORTH COAST

CITY           SKY/WX    TMP DP  RH WIND       PRES   REMARKS
EDENTON        HVY RAIN  41  40  97 N22G31    29.97F
ELIZABETH CITY LGT RAIN  40  38  93 NW20G29   29.96R
KITTY HAWK     DRIZZLE   40  39  97 N9G24     29.92R
MANTEO         HVY RAIN  40  40 100 N22G29    29.92R

$$

NCZ045>047-081-094-103-104-051100-
CENTRAL COAST

CITY           SKY/WX    TMP DP  RH WIND       PRES   REMARKS
FRISCO         CLOUDY   N/A N/A N/A N14G28    29.86S
SWANQUARTER      N/A     41 N/A N/A N9G21     29.91R

$$

NCZ095-097-098-100-101-051100-
SOUTHERN COAST

CITY           SKY/WX    TMP DP  RH WIND       PRES   REMARKS
BEAUFORT       LGT RAIN  43  41  93 N17G24    29.91R FOG
CEDAR ISLAND     N/A     43 N/A N/A NW33G44   29.97S
JACKSONVILLE   LGT RAIN  43  40  89 NW15G31   29.99R
PINEY ISLAND   LGT SNOW N/A N/A N/A N24G32    29.91S
WILMINGTON     CLOUDY    45  40  82 N23G31    30.00R


$$

NCZ011>013-027>030-043-044-078>080-089-090>093-098-051100-
COASTAL PLAIN

CITY           SKY/WX    TMP DP  RH WIND       PRES   REMARKS
AHOSKIE        DRIZZLE   37  34  90 N12G24    30.03F
CLINTON        CLOUDY    43  39  87 N10G22    30.06R
ELIZABETHTOWN  CLOUDY    43  40  88 NW10      30.06R
GOLDSBORO      CLOUDY    41  41 100 N14G26    30.05R
GREENVILLE     CLOUDY    37  37 100 N16G28    30.03S
HAVELOCK       HVY RAIN  42  40  92 N26G37    29.94S
KENANSVILLE      N/A     41  40  96 NW15      30.05R
KINSTON        CLOUDY    40  38  93 NW14G28   30.04R
NEW BERN       LGT RAIN  42  39  89 N20G31    29.95F
RICHLANDS      CLOUDY    43  34  70 NW12G25   30.02R
ROCKY MOUNT    CLOUDY    39  35  86 N17G26    30.06R
WASHINGTON     HVY RAIN  39  37  91 N17G30    29.98F
WHITEVILLE     CLOUDY    45  39  81 N7G17     30.05R

$$

AMZ130-135-150-152-154-156-158-170-250-252-270-ANZ085-086-088-633-658-670-051100-
MARINE OBSERVATIONS

STATION/POSITION TIME  TEMP    WIND        PRES    WAVE   SWELL
                       AIR SEA DIR/SP/G            HT/PER HT/PER
                 (UTC) (F)     (DEG/KT/KT) (MB)    (FT/S) (FT/S)
CHESAPEAKE LIGHT 1000   41     350/ 31/ 34 1014.3
64 E VA BEACH    0950   46 53  340/ 27/ 33 1010.4    7/ 6   2/12
DUCK             0900   41 46  340/ 26/ 31 1012.1
2 E DUCK         1011      45                N/A     7/ 6
OREGON INLET     0900   43 55  330/ 17/ 25 1011.8
13E OREGON INLT  1000      50                N/A     8/ 6   2/11
HATTERAS CG      0900   47 59  350/ 28/ 32 1009.8
DIAMOND BUOY     0950      70  350/ 25/ 31 1008.3    9/ 8
CAPE LOOKOUT     NOT AVBL
BEAUFORT LAB     0900   45 54  360/ 20/ 25 1011.3
30 SE NEW RVR IN 1008   44 66              1012.3
30 SE NEW RVR IN 0925      66                N/A     7/ 8   2/11
27 SE WRIGHTSVLE 1008   49 64  360/ 27/ 35 1014.3
5 SE WRIGHTSVLE  0908   47 54  350/ 23/ 29 1013.5
225 S CAPE HAT   0950   69 69  200/ 23/ 27   N/A     7/ 6   2/ 9
41 SE CHARLESTON 0950   52 69  280/ 25/ 29 1016.0    7/ 6   2/14

$$



USA.gov is the U.S. government's official web portal to all federal, state and local government web resources and services.